Regional Weather Roundup
Issued by NWS Sioux Falls, SD

Home | Current Version | Previous Version | Graphics & Text | Print | Product List | Glossary Off
Versions: 1 2 3 4 5 6 7 8 9 10 11 12 13 14 15 16 17 18 19 20 21 22 23 24 25 26 27 28 29 30 31 32 33 34 35 36 37 38 39 40 41 42 43 44 45 46 47 48 49 50

000
ASUS43 KFSD 102302
RWRFSD

WEATHER ROUNDUP FOR SE SOUTH DAKOTA/SW MINNESOTA/NW IOWA
NATIONAL WEATHER SERVICE SIOUX FALLS SD
500 PM CST WED FEB 10 2016

NOTE: "FAIR" INDICATES FEW OR NO CLOUDS BELOW 12,000 FEET WITH NO
SIGNIFICANT WEATHER AND OR OBSTRUCTIONS TO VISIBILITY.


SDZ038>040-050-052>070-110000-
SOUTHEAST SOUTH DAKOTA

CITY           SKY/WX    TMP DP  RH WIND       PRES   REMARKS
BROOKINGS      FLURRIES  12   7  80 E10       30.06R WCI  -1
CHAMBERLAIN    NOT AVBL
HURON          CLOUDY    21  15  78 E12       30.07R WCI   9
MADISON        CLOUDY    14  14 100 E14       30.03R WCI  -1
MITCHELL       CLOUDY    25  18  74 E14       30.06R WCI  13
SIOUX FALLS    CLOUDY    16  10  77 E13       30.05R WCI   2
WINNER         FAIR      43  30  60 N14       29.97R
YANKTON        MOCLDY    21  16  79 NE13      30.03R WCI   9
$$

MNZ071-072-080-081-089-090-097-098-110000-
SOUTHWEST MINNESOTA

CITY           SKY/WX    TMP DP  RH WIND       PRES   REMARKS
FAIRMONT       CLOUDY    12   3  67 NE10      30.08R WCI  -1
JACKSON        FLURRIES  12   5  73 E9        30.07R WCI   0
LUVERNE        CLOUDY    18  10  73 E13       30.06R WCI   4
MARSHALL       FLURRIES  11   5  77 E9        30.12R WCI  -2
MONTEVIDEO     FLURRIES  14   5  67 CALM      30.16R
PIPESTONE      CLOUDY    14   3  62 E12       30.04R WCI   0
REDWOOD FALLS  CLOUDY    14   3  61 NE6       30.13R WCI   5
TRACY          FLURRIES  12   7  82 E9        30.10R WCI  -1
WINDOM         FLURRIES  10   5  79 NE12      30.08R WCI  -4
WORTHINGTON    CLOUDY    10   5  79 NE10      30.07R WCI  -3
$$

IAZ001>003-012>014-020>022-031-032-NEZ013-014-SDZ071-110000-
NORTHWEST IOWA

CITY           SKY/WX    TMP DP  RH WIND       PRES   REMARKS
ESTHERVILLE    CLOUDY    11   6  81 E9        30.07R WCI  -2
SIOUX CITY     CLOUDY    23  16  74 E12       30.02R WCI  12
SPENCER        CLOUDY    14   7  73 E10       30.07R WCI   1
STORM LAKE     LGT SNOW  14  14 100 E16       30.03R WCI  -2
$$

ABBREVIATIONS USED IN REMARKS
   TC - TEMPERATURE IN CELSIUS
  WCI - WIND CHILL INDEX
   HX - HEAT INDEX
  VSB - VISIBILITY




USA.gov is the U.S. government's official web portal to all federal, state and local government web resources and services.